{"data":{"norad_id":56340,"epoch":"2026-09-20T12:42:59.996448Z","epoch_age_seconds":106146,"freshness":"FRESH","line1":"1 56340U 23058Z   26263.52986107  .00000308  00000+0  11871-4 0  9995","line2":"2 56340  97.2843 260.3411 0002016  93.4195 266.7278 15.33441367187641","mean_motion":15.33441367,"eccentricity":0.0002016,"inclination_deg":97.2843,"raan_deg":260.3411,"arg_perigee_deg":93.4195,"mean_anomaly_deg":266.7278,"bstar":1.1871e-5,"rev_number":18764,"period_min":93.906427137621,"perigee_km":464.17429564911,"apogee_km":466.93367185376,"semimajor_km":6843.6909837514,"source":"CELESTRAK","updated_at":"2026-09-21T09:00:33.405093Z"}}